GFSGL_500_temp_159.txt.gz
Temp
-10 -9 -9 -9 -9 -9 -9 -10 -10 -10 -11 -11 -11 -11 -10 -10 -10 -10 -10 -9 -10 -10 -10 -10 -11 -11 -11 -12 -12 -12 -12 -12 -12 -12 -12 -12 -12 -13 -13 -13 -13 -14 -15
-10 -10 -9 -9 -9 -9 -10 -9 -9 -10 -11 -11 -11 -11 -10 -10 -10 -10 -10 -10 -10 -10 -10 -11 -11 -11 -12 -12 -12 -12 -12 -12 -12 -13 -13 -13 -13 -13 -13 -13 -14 -15 -16
-10 -10 -9 -9 -8 -10 -10 -8 -9 -11 -11 -11 -11 -11 -10 -10 -10 -10 -10 -10 -10 -10 -10 -11 -11 -12 -12 -12 -12 -12 -12 -13 -13 -13 -13 -13 -13 -13 -13 -14 -15 -16 -16
-11 -10 -9 -9 -9 -10 -9 -8 -9 -11 -12 -11 -11 -11 -10 -10 -10 -10 -10 -10 -11 -11 -11 -12 -12 -12 -12 -12 -12 -13 -13 -13 -13 -13 -13 -13 -13 -13 -14 -14 -16 -17 -17
-9 -9 -9 -10 -11 -10 -10 -9 -10 -11 -12 -11 -11 -11 -10 -10 -10 -10 -10 -11 -11 -11 -12 -12 -12 -12 -13 -13 -13 -13 -13 -14 -14 -13 -13 -13 -14 -14 -14 -15 -16 -17 -17
-10 -9 -10 -10 -9 -7 -10 -9 -11 -13 -12 -12 -11 -11 -10 -11 -11 -10 -11 -11 -12 -12 -13 -13 -13 -13 -13 -13 -13 -13 -14 -14 -14 -14 -14 -14 -14 -14 -15 -16 -17 -17 -16
-9 -9 -7 -6 -9 -9 -9 -11 -13 -13 -12 -11 -11 -11 -11 -11 -11 -11 -11 -12 -12 -12 -13 -13 -13 -13 -13 -13 -14 -14 -14 -14 -14 -14 -14 -14 -14 -15 -15 -16 -17 -17 -16
-9 -9 -7 -7 -8 -9 -10 -12 -14 -13 -12 -12 -11 -11 -11 -11 -11 -11 -12 -12 -13 -13 -13 -13 -13 -13 -13 -14 -14 -14 -14 -14 -14 -14 -14 -14 -15 -16 -17 -17 -17 -17 -17
-9 -9 -8 -9 -9 -11 -12 -14 -14 -13 -12 -12 -12 -11 -11 -12 -12 -12 -12 -13 -14 -14 -14 -13 -14 -14 -14 -14 -14 -14 -14 -14 -14 -14 -15 -15 -16 -17 -17 -18 -18 -18 -17
-10 -11 -9 -10 -11 -11 -13 -14 -13 -12 -12 -12 -11 -12 -12 -12 -12 -12 -13 -14 -14 -13 -14 -14 -14 -14 -14 -14 -14 -14 -14 -15 -15 -15 -16 -17 -18 -18 -18 -18 -18 -18 -17
-11 -11 -11 -11 -11 -12 -14 -14 -13 -13 -12 -12 -12 -12 -12 -12 -13 -14 -14 -14 -14 -14 -14 -14 -14 -14 -14 -14 -15 -15 -15 -15 -16 -16 -17 -18 -19 -19 -19 -18 -18 -18 -17
-12 -12 -11 -12 -13 -14 -14 -13 -13 -13 -13 -13 -13 -13 -13 -14 -14 -14 -14 -14 -14 -15 -15 -14 -14 -14 -15 -15 -15 -15 -15 -16 -17 -18 -19 -19 -19 -19 -19 -19 -18 -18 -17
-12 -12 -13 -13 -13 -13 -13 -14 -13 -13 -13 -13 -14 -14 -14 -14 -14 -13 -14 -14 -14 -14 -14 -14 -14 -15 -15 -15 -15 -16 -17 -18 -19 -19 -20 -20 -20 -19 -19 -19 -19 -18 -18
-13 -13 -13 -13 -14 -14 -14 -13 -13 -14 -14 -14 -14 -14 -14 -14 -13 -14 -14 -14 -14 -14 -14 -15 -15 -15 -15 -16 -17 -18 -19 -19 -19 -20 -20 -20 -20 -20 -20 -19 -19 -18 -18
-13 -13 -14 -14 -14 -14 -14 -14 -14 -14 -13 -14 -14 -14 -14 -14 -14 -14 -14 -14 -14 -15 -14 -14 -15 -15 -16 -17 -18 -19 -19 -20 -20 -20 -21 -21 -20 -20 -20 -19 -19 -18 -18
-14 -14 -14 -14 -13 -13 -13 -13 -13 -13 -13 -14 -14 -14 -14 -14 -14 -14 -15 -15 -14 -14 -14 -15 -16 -17 -18 -19 -19 -19 -20 -20 -20 -21 -21 -20 -20 -20 -20 -19 -19 -18 -18
-14 -14 -13 -13 -13 -13 -13 -13 -13 -14 -14 -14 -14 -14 -14 -14 -15 -15 -14 -14 -14 -15 -16 -17 -18 -19 -19 -19 -19 -19 -20 -20 -20 -21 -21 -20 -20 -20 -20 -19 -19 -19 -18
-13 -13 -13 -13 -13 -14 -14 -14 -14 -14 -14 -14 -14 -14 -15 -14 -14 -14 -14 -14 -15 -16 -17 -19 -19 -19 -20 -20 -20 -20 -20 -20 -21 -21 -21 -20 -20 -20 -20 -20 -19 -19 -18
-13 -13 -13 -14 -14 -13 -13 -13 -14 -14 -14 -14 -14 -14 -14 -14 -14 -14 -15 -15 -17 -18 -19 -20 -20 -20 -20 -20 -20 -20 -21 -21 -21 -21 -21 -20 -20 -20 -20 -19 -19 -19 -19
-13 -13 -13 -14 -13 -14 -14 -14 -14 -14 -15 -15 -15 -14 -14 -14 -15 -15 -16 -18 -18 -19 -20 -21 -21 -21 -21 -21 -21 -21 -21 -21 -21 -21 -21 -20 -20 -20 -20 -19 -19 -19 -19
-13 -14 -14 -14 -14 -14 -14 -15 -15 -15 -15 -15 -15 -15 -15 -15 -15 -17 -18 -18 -18 -20 -21 -22 -22 -22 -21 -21 -21 -21 -21 -21 -21 -21 -21 -21 -20 -20 -20 -20 -19 -19 -18
-14 -13 -14 -14 -14 -15 -15 -15 -15 -15 -15 -15 -15 -15 -15 -16 -17 -18 -18 -18 -19 -20 -21 -22 -22 -22 -22 -21 -21 -22 -21 -21 -21 -21 -21 -21 -21 -20 -20 -20 -19 -19 -19
-14 -14 -15 -15 -15 -15 -15 -15 -15 -15 -15 -15 -15 -15 -16 -17 -18 -18 -19 -19 -19 -20 -21 -22 -22 -21 -21 -22 -22 -21 -21 -21 -21 -21 -21 -21 -21 -21 -20 -20 -20 -19 -19
-14 -15 -15 -15 -15 -15 -15 -15 -16 -16 -16 -16 -16 -17 -17 -18 -19 -19 -19 -19 -20 -20 -21 -21 -21 -21 -22 -21 -21 -21 -21 -21 -21 -21 -21 -21 -21 -21 -21 -20 -20 -20 -20
-16 -16 -16 -16 -16 -16 -16 -16 -16 -16 -16 -16 -17 -18 -19 -19 -19 -19 -19 -20 -20 -20 -21 -21 -21 -21 -21 -21 -21 -21 -21 -21 -21 -21 -21 -21 -21 -21 -21 -21 -21 -21 -20
-16 -16 -16 -16 -16 -16 -16 -16 -16 -16 -17 -18 -19 -19 -19 -19 -19 -19 -20 -20 -21 -21 -21 -21 -21 -21 -22 -22 -22 -21 -21 -22 -22 -22 -22 -21 -21 -21 -21 -21 -21 -21 -20

GFSGL_500_temp_162.txt.gz
Temp
-12 -11 -12 -11 -10 -9 -9 -10 -9 -8 -9 -9 -10 -10 -10 -11 -10 -10 -10 -10 -10 -10 -10 -10 -9 -10 -10 -11 -11 -11 -11 -12 -12 -12 -12 -12 -13 -13 -13 -13 -13 -13 -14
-13 -12 -11 -10 -10 -9 -10 -9 -7 -9 -9 -9 -10 -10 -10 -11 -10 -10 -10 -10 -10 -10 -10 -10 -10 -10 -11 -11 -11 -12 -12 -12 -12 -13 -13 -13 -13 -13 -13 -14 -14 -13 -14
-14 -13 -11 -10 -9 -9 -9 -9 -9 -9 -9 -9 -10 -10 -11 -11 -11 -10 -10 -10 -10 -10 -10 -10 -10 -11 -11 -12 -12 -12 -12 -12 -12 -13 -13 -13 -14 -14 -14 -14 -14 -14 -15
-14 -13 -11 -10 -10 -9 -9 -10 -8 -8 -9 -10 -10 -11 -12 -11 -11 -10 -11 -10 -10 -10 -11 -11 -11 -11 -12 -12 -12 -12 -12 -12 -13 -13 -14 -14 -14 -14 -14 -14 -15 -16 -16
-13 -12 -10 -10 -9 -9 -9 -10 -8 -9 -9 -10 -10 -12 -12 -11 -11 -11 -11 -10 -10 -10 -11 -11 -11 -12 -12 -13 -13 -12 -13 -13 -14 -14 -14 -14 -14 -14 -14 -15 -15 -16 -17
-13 -11 -10 -10 -9 -9 -9 -10 -8 -10 -9 -10 -11 -13 -12 -12 -11 -11 -10 -11 -11 -11 -11 -11 -12 -12 -13 -13 -13 -13 -13 -14 -14 -14 -14 -14 -14 -14 -15 -15 -16 -17 -17
-12 -10 -11 -9 -9 -9 -10 -10 -9 -9 -9 -10 -11 -13 -13 -12 -11 -11 -11 -11 -11 -11 -11 -12 -13 -13 -13 -13 -13 -13 -14 -14 -14 -14 -14 -14 -14 -15 -15 -16 -17 -18 -18
-12 -11 -10 -8 -8 -9 -10 -9 -8 -9 -10 -11 -13 -13 -13 -12 -11 -11 -11 -11 -11 -12 -12 -13 -13 -13 -14 -13 -13 -14 -14 -14 -14 -14 -14 -15 -15 -16 -17 -17 -18 -18 -19
-11 -11 -9 -8 -7 -10 -11 -10 -9 -11 -11 -13 -13 -13 -12 -12 -11 -11 -11 -12 -11 -12 -13 -13 -13 -14 -14 -14 -14 -14 -14 -14 -14 -15 -15 -16 -17 -18 -18 -19 -19 -19 -19
-11 -10 -9 -9 -9 -10 -11 -10 -9 -11 -12 -13 -13 -12 -12 -12 -11 -11 -12 -12 -12 -12 -13 -13 -14 -14 -14 -14 -14 -14 -14 -15 -15 -16 -17 -18 -19 -19 -19 -19 -19 -19 -18
-10 -11 -9 -9 -8 -8 -10 -10 -11 -13 -14 -13 -12 -12 -12 -12 -12 -12 -12 -12 -13 -13 -13 -14 -14 -14 -14 -14 -14 -15 -15 -16 -16 -17 -19 -19 -19 -20 -20 -20 -19 -19 -18
-10 -10 -10 -9 -9 -10 -10 -11 -12 -13 -13 -13 -12 -12 -12 -12 -12 -12 -12 -13 -13 -13 -14 -14 -14 -14 -14 -14 -15 -15 -16 -17 -18 -19 -19 -19 -19 -20 -20 -20 -20 -19 -18
-11 -11 -11 -11 -10 -11 -12 -13 -13 -13 -13 -12 -13 -12 -12 -13 -13 -13 -13 -13 -14 -14 -14 -14 -14 -14 -14 -15 -16 -16 -17 -18 -19 -19 -18 -18 -18 -19 -20 -20 -20 -19 -19
-12 -11 -12 -12 -12 -12 -12 -13 -13 -13 -13 -13 -13 -13 -13 -13 -14 -14 -14 -14 -14 -14 -14 -14 -14 -15 -15 -16 -17 -18 -19 -19 -19 -19 -19 -18 -19 -19 -20 -20 -19 -19 -19
-12 -12 -12 -12 -12 -12 -13 -13 -13 -13 -13 -13 -13 -14 -14 -14 -14 -14 -14 -14 -14 -14 -14 -14 -15 -15 -16 -17 -18 -19 -19 -19 -19 -19 -19 -19 -20 -20 -20 -19 -19 -19 -19
-13 -13 -12 -12 -12 -12 -13 -13 -13 -13 -14 -13 -14 -14 -14 -14 -14 -14 -14 -14 -14 -14 -14 -15 -16 -17 -17 -19 -19 -20 -19 -19 -19 -19 -19 -19 -20 -20 -20 -19 -19 -19 -19
-13 -13 -13 -13 -13 -13 -13 -14 -14 -14 -14 -14 -14 -14 -14 -15 -14 -14 -14 -14 -14 -14 -15 -16 -17 -17 -19 -20 -20 -20 -20 -20 -19 -19 -20 -20 -20 -20 -20 -19 -19 -19 -19
-14 -13 -13 -14 -14 -14 -13 -14 -14 -14 -14 -14 -15 -15 -14 -14 -14 -14 -14 -14 -15 -15 -16 -17 -17 -19 -20 -21 -21 -20 -20 -20 -20 -20 -20 -20 -20 -20 -20 -19 -19 -19 -18
-13 -14 -14 -14 -14 -14 -14 -14 -14 -15 -15 -15 -15 -14 -14 -14 -14 -14 -14 -15 -15 -17 -17 -18 -19 -19 -20 -21 -21 -20 -20 -20 -20 -21 -20 -20 -20 -20 -19 -19 -19 -18 -18
-13 -14 -14 -13 -14 -14 -14 -14 -15 -15 -15 -15 -14 -14 -14 -14 -14 -14 -15 -16 -17 -17 -17 -18 -19 -20 -20 -20 -20 -20 -20 -20 -20 -20 -20 -20 -20 -20 -19 -19 -19 -18 -18
-14 -14 -14 -14 -14 -14 -15 -15 -15 -15 -15 -15 -14 -14 -14 -14 -14 -15 -16 -17 -18 -18 -18 -18 -19 -19 -19 -19 -19 -20 -20 -20 -20 -20 -20 -20 -20 -20 -20 -19 -19 -19 -18
-14 -14 -13 -14 -15 -16 -15 -15 -15 -15 -15 -15 -15 -15 -15 -15 -15 -16 -17 -18 -18 -18 -18 -18 -19 -19 -19 -19 -20 -20 -20 -20 -20 -20 -20 -20 -20 -20 -20 -20 -19 -19 -19
-14 -14 -15 -16 -16 -15 -15 -15 -15 -15 -15 -15 -15 -15 -15 -15 -16 -17 -17 -18 -19 -19 -19 -19 -19 -19 -19 -19 -20 -20 -20 -20 -20 -20 -20 -20 -20 -20 -20 -20 -20 -19 -19
-14 -16 -16 -16 -15 -15 -15 -15 -15 -15 -15 -15 -15 -16 -16 -16 -16 -18 -18 -19 -19 -19 -19 -19 -19 -20 -20 -20 -20 -20 -20 -20 -20 -20 -20 -20 -20 -20 -20 -20 -20 -20 -20
-16 -16 -16 -16 -15 -15 -15 -15 -15 -16 -16 -16 -16 -16 -16 -17 -18 -18 -19 -19 -19 -19 -20 -20 -20 -20 -21 -21 -21 -21 -21 -21 -21 -21 -21 -21 -21 -20 -20 -20 -20 -20 -20
-16 -16 -16 -16 -16 -16 -16 -16 -16 -16 -16 -16 -16 -17 -18 -18 -19 -19 -19 -19 -20 -20 -20 -21 -21 -21 -21 -21 -21 -21 -21 -21 -21 -21 -21 -21 -21 -21 -21 -21 -20 -20 -20

GFSGL_500_temp_165.txt.gz
Temp
-16 -16 -15 -15 -13 -11 -12 -11 -10 -9 -9 -9 -9 -8 -9 -9 -9 -10 -11 -11 -11 -10 -10 -10 -10 -10 -10 -10 -10 -10 -11 -11 -12 -12 -12 -12 -12 -13 -13 -13 -13 -13 -14
-16 -17 -16 -14 -13 -11 -12 -11 -10 -9 -9 -10 -9 -9 -9 -8 -9 -10 -10 -12 -11 -10 -10 -10 -10 -10 -10 -10 -10 -11 -11 -12 -12 -12 -12 -12 -12 -13 -13 -14 -14 -14 -14
-17 -17 -16 -15 -13 -12 -12 -11 -10 -9 -9 -9 -9 -8 -9 -9 -9 -10 -10 -12 -11 -10 -11 -10 -10 -10 -10 -10 -11 -11 -12 -12 -12 -12 -12 -13 -13 -13 -14 -14 -14 -15 -15
-17 -17 -16 -16 -13 -12 -12 -11 -10 -10 -10 -9 -7 -8 -9 -9 -9 -10 -12 -11 -11 -11 -11 -10 -11 -11 -11 -11 -11 -12 -12 -12 -12 -13 -13 -13 -13 -13 -13 -14 -15 -17 -18
-17 -17 -17 -15 -13 -12 -12 -11 -10 -10 -10 -9 -7 -8 -9 -9 -10 -11 -12 -11 -11 -11 -11 -11 -11 -11 -11 -12 -11 -12 -12 -12 -13 -13 -13 -13 -13 -14 -14 -15 -16 -17 -19
-17 -16 -16 -15 -13 -13 -12 -11 -10 -10 -11 -10 -9 -9 -9 -9 -11 -12 -12 -11 -11 -11 -11 -11 -11 -12 -12 -11 -12 -12 -12 -13 -13 -13 -13 -13 -14 -15 -15 -16 -17 -18 -19
-17 -15 -15 -15 -13 -12 -11 -10 -10 -11 -10 -10 -9 -10 -10 -11 -12 -13 -12 -11 -11 -11 -12 -12 -12 -12 -12 -12 -12 -12 -13 -13 -13 -13 -14 -14 -15 -15 -16 -17 -19 -19 -18
-15 -16 -15 -14 -12 -11 -11 -11 -11 -11 -10 -9 -9 -11 -11 -12 -13 -13 -12 -11 -12 -12 -12 -12 -12 -12 -12 -12 -12 -13 -13 -13 -13 -13 -14 -15 -16 -16 -17 -18 -18 -18 -19
-15 -15 -14 -12 -11 -9 -10 -10 -11 -11 -10 -9 -10 -11 -12 -13 -14 -12 -12 -12 -12 -12 -12 -12 -13 -12 -13 -13 -13 -13 -13 -13 -12 -13 -15 -16 -17 -18 -18 -18 -18 -19 -19
-15 -14 -13 -12 -11 -10 -10 -9 -10 -10 -10 -10 -11 -12 -13 -14 -14 -13 -13 -12 -13 -12 -12 -13 -13 -12 -12 -13 -13 -13 -12 -13 -14 -16 -16 -17 -18 -18 -18 -18 -18 -19 -19
-14 -13 -12 -12 -11 -11 -10 -9 -10 -9 -11 -11 -12 -13 -14 -14 -14 -13 -13 -12 -12 -13 -13 -13 -13 -13 -13 -13 -12 -12 -13 -14 -16 -17 -18 -18 -18 -18 -19 -19 -19 -19 -18
-14 -12 -11 -10 -10 -10 -10 -9 -9 -10 -11 -12 -12 -13 -14 -14 -14 -13 -13 -13 -13 -13 -13 -13 -13 -13 -13 -12 -12 -13 -15 -15 -17 -18 -19 -19 -19 -19 -20 -19 -19 -19 -18
-12 -12 -11 -11 -11 -10 -9 -9 -10 -10 -11 -12 -12 -13 -14 -14 -13 -13 -13 -13 -13 -13 -13 -13 -13 -13 -12 -13 -13 -15 -16 -18 -19 -19 -19 -19 -18 -19 -20 -20 -19 -19 -19
-11 -11 -11 -11 -11 -10 -10 -11 -12 -11 -13 -13 -13 -14 -14 -13 -13 -13 -13 -13 -13 -13 -13 -13 -13 -13 -13 -13 -15 -16 -18 -19 -20 -20 -19 -19 -19 -19 -20 -19 -19 -19 -19
-11 -11 -11 -12 -12 -12 -12 -13 -13 -12 -13 -14 -14 -14 -13 -13 -13 -13 -14 -14 -14 -13 -13 -13 -13 -14 -14 -15 -16 -17 -19 -20 -20 -19 -19 -20 -20 -20 -19 -19 -19 -19 -18
-12 -12 -12 -12 -13 -13 -13 -13 -13 -14 -14 -14 -14 -13 -14 -14 -14 -14 -14 -14 -13 -13 -14 -13 -14 -14 -15 -16 -17 -19 -20 -20 -19 -19 -19 -20 -20 -20 -19 -19 -19 -18 -18
-13 -13 -14 -14 -14 -14 -14 -14 -14 -14 -14 -14 -14 -14 -14 -14 -14 -14 -14 -13 -14 -14 -14 -14 -14 -15 -17 -17 -19 -20 -20 -19 -19 -19 -19 -20 -19 -19 -19 -19 -18 -18 -18
-13 -13 -14 -14 -14 -14 -14 -14 -14 -14 -14 -14 -14 -14 -14 -14 -14 -14 -14 -14 -14 -14 -14 -15 -16 -17 -18 -19 -19 -19 -19 -19 -19 -19 -19 -19 -19 -19 -19 -18 -18 -18 -18
-14 -14 -14 -14 -14 -14 -14 -14 -14 -14 -14 -14 -14 -14 -14 -14 -14 -14 -14 -14 -15 -15 -15 -16 -17 -18 -18 -19 -19 -19 -19 -19 -19 -19 -19 -19 -19 -19 -19 -18 -18 -18 -18
-13 -14 -14 -14 -14 -14 -14 -14 -14 -13 -14 -14 -14 -14 -14 -14 -14 -14 -15 -15 -15 -16 -17 -17 -18 -18 -19 -19 -19 -19 -19 -19 -19 -19 -19 -19 -19 -19 -19 -19 -19 -18 -18
-13 -14 -14 -14 -14 -14 -14 -14 -15 -15 -14 -14 -15 -14 -15 -14 -14 -15 -15 -15 -16 -17 -18 -19 -19 -19 -19 -19 -19 -19 -19 -19 -19 -19 -19 -19 -19 -19 -19 -19 -19 -19 -18
-14 -14 -14 -14 -15 -15 -15 -15 -15 -15 -15 -15 -15 -15 -15 -15 -15 -15 -15 -16 -17 -18 -19 -20 -20 -20 -20 -20 -20 -20 -20 -20 -20 -19 -19 -19 -19 -19 -19 -19 -19 -19 -19
-14 -14 -14 -15 -15 -15 -15 -15 -15 -15 -15 -15 -15 -15 -15 -15 -15 -15 -17 -18 -18 -19 -20 -20 -20 -20 -20 -20 -20 -20 -20 -20 -20 -20 -20 -20 -20 -19 -19 -19 -19 -19 -19
-14 -15 -15 -15 -15 -15 -15 -15 -15 -15 -15 -15 -15 -15 -15 -15 -16 -17 -18 -19 -19 -20 -20 -20 -20 -20 -20 -20 -21 -21 -21 -21 -21 -20 -20 -20 -20 -20 -20 -19 -19 -19 -19
-15 -16 -16 -15 -15 -15 -15 -15 -15 -15 -16 -16 -16 -16 -17 -18 -18 -19 -19 -20 -20 -20 -20 -20 -20 -20 -20 -21 -21 -21 -21 -21 -21 -21 -21 -21 -20 -20 -20 -20 -20 -20 -20
-16 -16 -16 -16 -16 -16 -16 -16 -16 -16 -16 -17 -18 -18 -18 -19 -19 -20 -20 -20 -20 -20 -21 -21 -21 -21 -21 -21 -21 -21 -21 -22 -22 -22 -21 -21 -21 -21 -21 -20 -20 -20 -20

GFSGL_500_temp_168.txt.gz
Temp
-18 -18 -18 -17 -17 -14 -15 -14 -13 -13 -12 -12 -10 -9 -9 -9 -9 -9 -8 -9 -9 -10 -10 -11 -11 -10 -10 -10 -10 -10 -11 -11 -11 -11 -12 -12 -12 -12 -12 -11 -12 -13 -14
-18 -18 -18 -18 -17 -16 -14 -14 -14 -13 -12 -12 -11 -10 -9 -9 -8 -8 -8 -9 -9 -10 -10 -10 -11 -11 -10 -10 -11 -11 -11 -11 -11 -12 -12 -12 -12 -12 -12 -12 -12 -13 -15
-17 -17 -17 -17 -17 -17 -14 -15 -14 -12 -12 -12 -11 -10 -10 -10 -9 -8 -9 -9 -9 -10 -10 -11 -11 -11 -11 -11 -11 -11 -11 -11 -11 -12 -12 -12 -12 -12 -12 -13 -14 -15 -16
-17 -17 -17 -17 -17 -17 -16 -15 -14 -12 -12 -12 -11 -11 -10 -10 -9 -8 -9 -9 -10 -10 -12 -12 -12 -11 -11 -11 -11 -11 -11 -12 -12 -12 -12 -12 -12 -12 -12 -13 -15 -16 -18
-17 -17 -17 -18 -18 -17 -16 -15 -13 -12 -12 -11 -11 -11 -10 -11 -9 -9 -9 -10 -10 -10 -13 -13 -12 -11 -11 -11 -11 -11 -11 -12 -12 -12 -12 -11 -11 -12 -14 -15 -16 -17 -18
-17 -17 -17 -17 -18 -17 -16 -15 -13 -13 -11 -11 -11 -11 -11 -11 -10 -9 -10 -10 -11 -12 -13 -13 -11 -10 -11 -11 -11 -12 -12 -12 -12 -12 -11 -11 -11 -13 -15 -16 -17 -18 -17
-17 -17 -17 -17 -18 -17 -16 -16 -14 -12 -12 -12 -12 -12 -11 -11 -10 -10 -10 -11 -13 -13 -13 -13 -11 -11 -11 -11 -12 -13 -13 -12 -12 -11 -11 -12 -13 -15 -16 -17 -18 -18 -17
-17 -18 -17 -18 -17 -17 -16 -15 -14 -13 -12 -12 -12 -12 -12 -11 -10 -10 -11 -11 -13 -14 -13 -12 -11 -11 -11 -13 -13 -13 -12 -12 -11 -11 -12 -13 -14 -16 -17 -17 -17 -17 -18
-17 -17 -17 -18 -17 -16 -16 -14 -13 -13 -12 -12 -11 -11 -11 -10 -11 -11 -12 -13 -13 -14 -13 -12 -12 -12 -12 -13 -12 -12 -12 -11 -11 -12 -12 -14 -15 -17 -18 -18 -18 -17 -18
-17 -17 -17 -17 -17 -16 -16 -15 -13 -12 -11 -11 -11 -10 -10 -11 -11 -12 -13 -14 -14 -14 -13 -12 -12 -12 -13 -12 -12 -12 -11 -12 -12 -12 -14 -16 -17 -18 -18 -18 -17 -18 -18
-17 -17 -17 -16 -15 -15 -14 -12 -10 -11 -11 -11 -11 -11 -11 -12 -12 -13 -13 -13 -14 -14 -13 -12 -13 -13 -12 -12 -12 -12 -12 -12 -13 -14 -16 -18 -19 -19 -18 -18 -18 -18 -17
-17 -16 -15 -15 -14 -14 -13 -11 -10 -11 -11 -11 -10 -11 -11 -12 -12 -13 -14 -14 -13 -13 -13 -13 -12 -12 -12 -12 -12 -12 -12 -13 -14 -16 -19 -19 -19 -19 -18 -18 -18 -17 -17
-15 -15 -15 -14 -14 -13 -12 -11 -11 -10 -10 -11 -11 -12 -12 -13 -13 -13 -13 -14 -13 -13 -13 -12 -12 -13 -13 -13 -13 -13 -13 -15 -16 -18 -19 -19 -18 -18 -18 -18 -18 -18 -17
-15 -15 -15 -14 -12 -11 -11 -11 -10 -9 -10 -11 -12 -13 -13 -14 -13 -13 -13 -13 -13 -13 -13 -13 -13 -13 -13 -13 -13 -14 -16 -16 -18 -19 -19 -18 -18 -18 -18 -18 -18 -18 -18
-14 -14 -13 -12 -12 -12 -12 -11 -11 -11 -12 -13 -13 -14 -14 -14 -14 -13 -13 -13 -13 -13 -13 -13 -13 -13 -13 -14 -15 -16 -17 -17 -19 -19 -18 -18 -18 -18 -18 -18 -18 -18 -17
-13 -12 -12 -12 -13 -12 -12 -12 -13 -13 -14 -14 -14 -14 -14 -13 -13 -13 -13 -13 -13 -13 -13 -13 -13 -14 -14 -15 -16 -17 -18 -18 -19 -18 -18 -19 -18 -19 -19 -18 -18 -17 -17
-12 -12 -12 -13 -12 -13 -12 -13 -13 -13 -14 -14 -14 -14 -13 -13 -13 -14 -13 -13 -14 -13 -13 -13 -14 -15 -15 -16 -17 -18 -18 -19 -19 -18 -18 -19 -19 -19 -19 -18 -18 -18 -18
-13 -13 -13 -13 -13 -14 -14 -14 -14 -14 -14 -13 -13 -13 -13 -14 -14 -14 -14 -14 -13 -13 -14 -14 -15 -15 -16 -17 -18 -18 -18 -19 -18 -19 -19 -19 -19 -19 -19 -18 -18 -18 -18
-13 -13 -14 -14 -14 -14 -14 -14 -14 -14 -14 -14 -14 -14 -14 -14 -14 -14 -13 -14 -14 -14 -15 -15 -15 -16 -17 -18 -18 -19 -19 -19 -19 -19 -19 -19 -19 -19 -19 -18 -18 -18 -18
-13 -14 -14 -14 -14 -14 -14 -14 -14 -14 -14 -14 -14 -14 -14 -14 -14 -14 -14 -14 -15 -15 -15 -16 -17 -17 -18 -18 -19 -19 -19 -19 -19 -19 -19 -19 -19 -19 -19 -19 -19 -18 -18
-14 -14 -14 -14 -14 -14 -14 -14 -14 -14 -14 -14 -14 -14 -14 -14 -14 -14 -14 -15 -15 -16 -17 -17 -17 -18 -18 -19 -20 -20 -20 -20 -20 -20 -20 -20 -19 -19 -19 -19 -19 -19 -18
-14 -14 -14 -14 -14 -14 -14 -14 -14 -14 -14 -14 -14 -14 -14 -14 -14 -15 -15 -15 -16 -17 -17 -18 -18 -19 -20 -20 -20 -20 -20 -20 -20 -20 -20 -20 -20 -20 -19 -19 -19 -19 -19
-13 -14 -14 -14 -14 -14 -14 -14 -14 -14 -14 -14 -14 -14 -14 -15 -15 -16 -16 -17 -17 -17 -18 -19 -20 -20 -20 -20 -20 -20 -21 -21 -21 -21 -21 -21 -21 -20 -20 -20 -20 -19 -19
-14 -14 -14 -14 -15 -15 -15 -15 -15 -15 -14 -15 -15 -15 -15 -15 -16 -16 -17 -17 -18 -19 -20 -20 -20 -21 -21 -21 -21 -21 -22 -22 -22 -22 -22 -22 -22 -21 -21 -20 -20 -20 -19
-15 -15 -15 -15 -15 -15 -15 -15 -15 -15 -15 -15 -15 -16 -16 -16 -17 -17 -18 -19 -20 -20 -20 -21 -21 -21 -21 -22 -22 -22 -22 -22 -22 -22 -22 -22 -22 -22 -21 -21 -20 -20 -20
-16 -15 -15 -15 -15 -15 -15 -15 -15 -16 -16 -16 -16 -17 -17 -17 -17 -18 -19 -20 -20 -21 -21 -21 -21 -21 -22 -22 -23 -23 -23 -23 -23 -23 -23 -23 -23 -22 -22 -21 -21 -20 -20

GFSGL_500_temp_171.txt.gz
Temp
-17 -17 -17 -18 -18 -16 -16 -15 -15 -13 -10 -8 -10 -11 -11 -11 -10 -9 -9 -9 -9 -9 -9 -9 -9 -10 -10 -11 -12 -11 -11 -11 -11 -11 -10 -10 -11 -11 -11 -11 -11 -12 -13
-17 -17 -17 -18 -19 -18 -16 -16 -16 -14 -11 -9 -12 -11 -11 -11 -10 -10 -9 -7 -9 -9 -9 -9 -9 -10 -10 -12 -12 -12 -11 -11 -11 -11 -10 -11 -11 -11 -11 -11 -11 -13 -15
-18 -18 -18 -18 -19 -19 -17 -17 -16 -14 -13 -12 -11 -11 -11 -11 -11 -10 -10 -9 -8 -9 -9 -10 -9 -10 -10 -12 -12 -12 -11 -11 -11 -11 -11 -11 -11 -11 -11 -11 -13 -15 -17
-18 -18 -17 -18 -19 -19 -18 -17 -17 -16 -13 -13 -12 -11 -12 -12 -11 -11 -11 -10 -9 -9 -9 -10 -10 -10 -11 -13 -13 -12 -12 -11 -11 -11 -11 -11 -11 -11 -11 -13 -16 -17 -18
-18 -18 -17 -18 -18 -19 -18 -18 -17 -16 -13 -13 -12 -12 -12 -12 -12 -12 -11 -10 -10 -9 -10 -10 -10 -11 -13 -13 -13 -13 -11 -11 -11 -11 -11 -11 -11 -11 -13 -15 -16 -17 -17
-17 -17 -18 -17 -18 -18 -18 -18 -17 -16 -15 -12 -13 -12 -12 -12 -13 -13 -12 -11 -10 -9 -10 -11 -11 -13 -13 -13 -13 -12 -11 -11 -11 -11 -11 -11 -11 -12 -14 -16 -17 -18 -17
-16 -17 -17 -17 -17 -18 -18 -18 -17 -17 -15 -14 -14 -13 -12 -12 -12 -12 -11 -11 -10 -10 -10 -12 -13 -13 -13 -13 -12 -11 -11 -11 -11 -11 -11 -11 -11 -12 -15 -17 -18 -18 -17
-16 -17 -17 -17 -17 -18 -18 -18 -18 -17 -15 -14 -13 -13 -13 -13 -12 -12 -12 -11 -11 -11 -11 -13 -13 -13 -13 -13 -12 -11 -11 -11 -11 -11 -11 -11 -12 -13 -15 -17 -18 -17 -18
-17 -17 -17 -17 -17 -17 -17 -17 -17 -17 -16 -15 -13 -13 -13 -13 -12 -12 -12 -12 -11 -11 -13 -13 -13 -13 -13 -12 -12 -11 -11 -11 -11 -11 -11 -11 -12 -14 -16 -17 -17 -17 -18
-17 -17 -18 -18 -17 -17 -17 -17 -17 -17 -16 -15 -14 -13 -13 -12 -12 -12 -13 -12 -11 -12 -13 -13 -13 -13 -12 -12 -12 -11 -11 -11 -11 -11 -11 -13 -14 -15 -16 -17 -17 -17 -17
-18 -17 -17 -17 -17 -17 -17 -17 -16 -15 -15 -14 -14 -13 -13 -13 -13 -13 -12 -11 -12 -13 -13 -13 -13 -12 -12 -12 -12 -12 -12 -12 -12 -12 -13 -14 -15 -17 -17 -17 -17 -17 -17
-17 -17 -16 -16 -17 -17 -16 -16 -15 -14 -14 -14 -13 -12 -13 -12 -12 -12 -11 -12 -13 -13 -14 -13 -12 -12 -12 -12 -12 -12 -12 -12 -12 -14 -15 -16 -17 -18 -18 -17 -17 -16 -16
-16 -16 -16 -17 -17 -16 -16 -15 -15 -12 -12 -12 -12 -11 -13 -13 -12 -12 -12 -13 -13 -14 -13 -13 -12 -12 -12 -12 -12 -13 -12 -12 -14 -16 -16 -17 -18 -18 -18 -17 -17 -16 -16
-16 -16 -16 -17 -16 -16 -15 -15 -13 -12 -11 -12 -12 -12 -12 -12 -12 -13 -13 -14 -14 -13 -13 -12 -12 -12 -13 -13 -13 -13 -13 -15 -16 -17 -17 -18 -17 -18 -18 -18 -18 -17 -17
-16 -17 -17 -17 -16 -15 -15 -14 -13 -13 -13 -11 -11 -12 -12 -12 -13 -13 -14 -14 -13 -13 -12 -12 -13 -13 -13 -13 -13 -14 -15 -15 -16 -18 -18 -18 -18 -18 -18 -18 -18 -17 -17
-15 -15 -16 -16 -14 -14 -13 -13 -14 -13 -12 -13 -13 -13 -12 -13 -14 -14 -13 -13 -13 -12 -12 -13 -13 -13 -13 -13 -14 -15 -15 -17 -17 -18 -18 -18 -18 -18 -18 -18 -18 -18 -18
-14 -14 -13 -14 -14 -13 -14 -13 -13 -13 -13 -14 -14 -14 -15 -14 -13 -13 -13 -13 -13 -13 -13 -13 -13 -13 -14 -14 -14 -16 -16 -17 -18 -18 -19 -19 -19 -18 -18 -18 -18 -18 -18
-13 -13 -13 -14 -13 -13 -14 -14 -14 -14 -13 -13 -14 -14 -14 -13 -13 -13 -13 -13 -13 -13 -13 -13 -14 -14 -14 -15 -16 -16 -16 -18 -18 -19 -19 -19 -19 -19 -19 -18 -18 -18 -18
-13 -13 -13 -13 -13 -13 -13 -13 -14 -14 -14 -14 -14 -13 -14 -14 -13 -13 -13 -14 -13 -13 -14 -14 -14 -15 -16 -16 -16 -17 -18 -18 -19 -19 -19 -19 -19 -19 -19 -19 -18 -18 -18
-13 -13 -14 -14 -14 -14 -14 -14 -14 -14 -14 -14 -14 -14 -14 -13 -14 -14 -14 -13 -14 -14 -14 -14 -15 -16 -16 -16 -17 -18 -19 -19 -19 -20 -20 -20 -20 -20 -20 -19 -19 -19 -18
-13 -13 -14 -14 -14 -14 -14 -14 -14 -14 -14 -14 -14 -14 -14 -14 -14 -14 -14 -14 -14 -15 -15 -15 -16 -16 -16 -18 -19 -20 -20 -20 -20 -20 -20 -20 -20 -20 -20 -20 -19 -19 -19
-14 -13 -13 -14 -14 -14 -14 -14 -14 -14 -14 -14 -14 -14 -14 -14 -14 -14 -15 -15 -15 -15 -16 -16 -16 -17 -18 -19 -20 -20 -20 -21 -21 -21 -21 -21 -21 -21 -21 -20 -20 -20 -19
-14 -14 -14 -14 -14 -14 -14 -14 -14 -15 -15 -15 -14 -14 -14 -14 -15 -15 -15 -15 -15 -16 -16 -16 -17 -19 -20 -20 -20 -21 -21 -21 -22 -22 -22 -22 -22 -22 -21 -21 -21 -20 -20
-15 -15 -15 -15 -15 -15 -15 -15 -15 -15 -15 -15 -15 -15 -15 -15 -15 -15 -15 -16 -16 -17 -17 -19 -19 -20 -20 -21 -21 -21 -22 -22 -22 -22 -22 -22 -22 -22 -22 -22 -21 -21 -20
-15 -15 -15 -15 -15 -15 -15 -15 -15 -15 -15 -15 -15 -15 -15 -16 -16 -16 -16 -17 -17 -18 -19 -19 -20 -21 -21 -21 -22 -22 -22 -23 -23 -23 -23 -23 -23 -22 -22 -22 -22 -21 -21
-15 -15 -15 -15 -15 -15 -15 -15 -15 -15 -15 -16 -16 -16 -16 -17 -17 -16 -17 -17 -18 -19 -20 -20 -21 -21 -21 -22 -22 -23 -23 -23 -23 -23 -23 -23 -23 -22 -22 -22 -22 -21 -21

GFSGL_500_temp_174.txt.gz
Temp
-16 -16 -15 -15 -16 -16 -16 -16 -16 -15 -14 -13 -13 -12 -12 -12 -11 -11 -12 -11 -10 -10 -10 -9 -9 -9 -9 -9 -9 -9 -10 -10 -11 -12 -12 -11 -10 -10 -10 -10 -10 -10 -11
-16 -16 -16 -16 -16 -16 -18 -18 -17 -16 -15 -15 -14 -13 -12 -12 -12 -11 -11 -12 -11 -10 -10 -10 -9 -9 -9 -8 -9 -10 -10 -11 -12 -13 -12 -11 -11 -10 -10 -10 -10 -10 -11
-16 -16 -16 -16 -16 -16 -17 -19 -18 -16 -16 -15 -14 -13 -12 -12 -10 -10 -11 -12 -11 -10 -10 -9 -8 -9 -9 -9 -10 -10 -10 -12 -13 -13 -12 -11 -11 -10 -10 -10 -11 -12 -13
-17 -16 -16 -16 -16 -17 -17 -18 -18 -18 -16 -15 -15 -14 -12 -11 -9 -10 -9 -12 -9 -10 -11 -9 -10 -10 -10 -10 -11 -11 -11 -12 -12 -12 -11 -11 -11 -11 -10 -10 -12 -13 -15
-17 -16 -16 -17 -17 -17 -17 -18 -19 -18 -17 -16 -15 -14 -13 -12 -12 -10 -11 -11 -11 -10 -11 -11 -10 -10 -10 -11 -11 -11 -12 -12 -12 -11 -11 -11 -11 -10 -10 -11 -12 -15 -16
-17 -16 -16 -17 -17 -17 -18 -18 -19 -18 -18 -16 -15 -15 -14 -14 -12 -11 -11 -12 -12 -11 -12 -11 -10 -11 -10 -10 -11 -12 -12 -12 -11 -11 -11 -11 -10 -10 -11 -12 -14 -16 -16
-17 -17 -17 -17 -17 -17 -18 -18 -18 -18 -18 -17 -16 -15 -15 -13 -13 -14 -12 -12 -12 -12 -12 -11 -10 -11 -10 -11 -11 -12 -12 -12 -11 -11 -11 -10 -10 -11 -12 -14 -15 -16 -16
-16 -17 -17 -17 -17 -17 -18 -18 -18 -18 -18 -18 -16 -15 -14 -14 -14 -13 -13 -13 -13 -13 -12 -11 -11 -11 -11 -12 -12 -12 -12 -11 -11 -11 -11 -10 -11 -13 -14 -15 -15 -16 -16
-16 -16 -16 -16 -16 -17 -17 -17 -18 -18 -18 -18 -17 -16 -15 -14 -14 -13 -13 -13 -12 -12 -12 -11 -11 -11 -12 -12 -12 -12 -12 -11 -11 -11 -11 -11 -12 -13 -15 -15 -16 -16 -17
-16 -16 -16 -17 -17 -16 -16 -17 -17 -18 -18 -18 -17 -16 -15 -15 -14 -14 -13 -13 -13 -12 -12 -12 -11 -12 -12 -12 -12 -12 -12 -12 -11 -11 -11 -11 -13 -14 -15 -16 -16 -16 -16
-16 -16 -17 -17 -17 -16 -16 -17 -18 -17 -18 -17 -17 -15 -15 -15 -14 -13 -13 -13 -12 -12 -12 -12 -12 -13 -12 -12 -12 -12 -12 -12 -12 -12 -12 -12 -14 -15 -16 -16 -16 -17 -16
-17 -16 -16 -16 -16 -16 -16 -17 -17 -17 -17 -17 -16 -15 -15 -14 -14 -13 -13 -13 -13 -13 -13 -12 -13 -13 -12 -12 -12 -12 -12 -12 -12 -12 -13 -14 -15 -17 -17 -16 -16 -16 -16
-18 -16 -16 -16 -16 -16 -17 -18 -18 -17 -17 -17 -16 -14 -14 -14 -13 -13 -13 -13 -13 -13 -12 -13 -13 -12 -12 -12 -12 -12 -12 -13 -13 -13 -14 -15 -16 -17 -17 -17 -16 -16 -16
-16 -16 -17 -17 -17 -17 -17 -17 -17 -17 -16 -16 -16 -13 -13 -13 -13 -13 -13 -13 -13 -12 -14 -13 -12 -12 -12 -12 -13 -13 -13 -13 -14 -14 -14 -16 -17 -18 -18 -17 -17 -17 -17
-16 -16 -17 -17 -17 -16 -16 -16 -16 -15 -16 -15 -14 -12 -13 -14 -12 -13 -13 -14 -13 -14 -13 -13 -12 -13 -13 -13 -13 -13 -13 -14 -14 -14 -15 -16 -18 -18 -18 -18 -18 -17 -17
-16 -16 -16 -16 -16 -16 -16 -16 -15 -15 -14 -14 -14 -13 -13 -13 -13 -13 -13 -14 -14 -13 -13 -13 -13 -13 -13 -13 -13 -13 -14 -14 -15 -15 -16 -17 -18 -19 -19 -18 -18 -18 -17
-15 -15 -15 -15 -15 -15 -15 -14 -14 -14 -14 -14 -13 -12 -13 -13 -13 -15 -14 -14 -13 -13 -13 -13 -13 -13 -13 -13 -14 -14 -14 -15 -15 -16 -17 -18 -18 -19 -19 -19 -19 -18 -18
-15 -15 -14 -14 -14 -14 -14 -14 -14 -14 -14 -13 -14 -14 -14 -15 -15 -14 -13 -13 -13 -13 -13 -13 -14 -13 -13 -14 -14 -15 -15 -16 -16 -17 -18 -19 -20 -20 -20 -19 -19 -19 -18
-14 -14 -14 -14 -14 -14 -14 -14 -14 -14 -14 -14 -13 -14 -15 -14 -14 -14 -13 -13 -13 -13 -14 -14 -13 -14 -14 -14 -15 -15 -16 -17 -18 -18 -19 -20 -20 -20 -20 -20 -20 -19 -19
-14 -14 -14 -14 -14 -14 -14 -14 -14 -14 -14 -15 -15 -14 -14 -14 -13 -13 -14 -13 -13 -14 -14 -14 -14 -14 -15 -15 -15 -16 -17 -18 -19 -20 -20 -21 -21 -21 -21 -20 -20 -20 -19
-13 -14 -14 -14 -14 -14 -14 -14 -15 -15 -14 -14 -14 -14 -14 -14 -14 -13 -14 -14 -14 -14 -14 -14 -15 -15 -15 -15 -16 -17 -18 -19 -20 -21 -21 -22 -22 -21 -21 -20 -20 -20 -20
-14 -14 -14 -14 -14 -14 -15 -15 -15 -14 -14 -14 -14 -14 -14 -14 -14 -14 -14 -14 -15 -15 -15 -15 -15 -15 -16 -16 -17 -18 -19 -20 -21 -21 -22 -22 -22 -22 -21 -21 -21 -21 -20
-14 -14 -14 -14 -15 -15 -14 -14 -14 -14 -14 -14 -14 -14 -14 -14 -14 -14 -15 -15 -15 -15 -15 -15 -15 -16 -16 -17 -18 -19 -21 -21 -21 -22 -22 -22 -22 -22 -22 -22 -22 -21 -20
-14 -15 -14 -14 -14 -14 -14 -14 -14 -14 -14 -14 -14 -15 -15 -15 -15 -15 -16 -15 -15 -15 -15 -15 -16 -17 -17 -19 -20 -21 -22 -22 -22 -22 -22 -22 -23 -22 -22 -22 -22 -22 -21
-14 -14 -14 -14 -14 -15 -15 -15 -15 -15 -15 -15 -15 -15 -15 -15 -15 -16 -16 -15 -15 -16 -16 -16 -17 -18 -19 -20 -21 -22 -22 -22 -23 -23 -23 -23 -23 -23 -23 -22 -22 -22 -21
-14 -15 -15 -14 -15 -15 -15 -15 -15 -15 -15 -15 -16 -16 -16 -16 -16 -16 -16 -16 -16 -16 -17 -18 -19 -19 -21 -21 -22 -23 -23 -23 -23 -23 -23 -23 -23 -23 -23 -22 -22 -22 -21